Location: Unspecified
(49.6500°N, 0.0000°E)
Time: 04:29:30
(UTC+00:00)

CZ-6A DEB - Visible Passes

Search period start: 04 April 2026 00:00
Search period end: 14 April 2026 00:00
Orbit: 774 x 829 km, 89.0° (Epoch: 29 March)

Date Brightness Start Highest point End Pass type
(mag) Time Alt. Az. Time Alt. Az. Time Alt. Az.
4 Apr ? 04:44:37 10° ESE 04:48:27 21° ENE 04:52:17 10° NNE visible
5 Apr ? 04:19:38 10° E 04:22:17 14° ENE 04:24:57 10° NE visible
6 Apr ? 19:22:29 10° NW 19:25:21 15° WNW 19:28:14 10° WSW visible
8 Apr ? 04:39:03 10° SE 04:43:19 26° ENE 04:47:34 10° NNE visible
9 Apr ? 04:13:42 10° ESE 04:17:05 18° ENE 04:20:28 10° NNE visible
10 Apr ? 03:49:08 10° E 03:50:55 12° ENE 03:52:44 10° NE visible
10 Apr ? 19:18:12 10° NW 19:20:06 12° WNW 19:22:00 10° W visible
12 Apr ? 04:33:31 10° SE 04:38:06 33° ENE 04:42:41 10° NNE visible
13 Apr ? 04:07:53 10° ESE 04:11:48 22° ENE 04:15:44 10° NNE visible
